Wainwright, AK

5:31 PM AKDT on October 20, 2017 (GMT -0800)
Wainwright

Weather History for PAWI - May, 2014

Change the Weather History Date:

Thursday, May 8, 2014

  Actual Average (PABR) Record (PABR)
Temperature  
Mean Temperature 18 °F -  
Max Temperature 27 °F 21 °F 35 °F (1985)
Min Temperature 10 °F 11 °F -11 °F (1944)
Degree Days  
Heating Degree Days 46    
Moisture  
Dew Point 15 °F    
Average Humidity 82    
Maximum Humidity 92    
Minimum Humidity 74    
Precipitation  
Precipitation 0.00 in - - ()
Sea Level Pressure  
Sea Level Pressure 30.02 in    
Wind  
Wind Speed 6 mph (East)    
Max Wind Speed 14 mph    
Max Gust Speed -    
Visibility 10 miles    
Events      
Averages and records for this station are not official NWS values.
T = Trace of Precipitation, MM = Missing Value Source: NWS Daily Summary

Daily Weather History Graph

Daily Weather History Graph

Search for Another Location

Airport or City:

Trip Planner

Search our weather history database for the weather conditions in past years. The results will help you decide how hot, cold, wet, or windy it might be!

Date:

Astronomy

May. 08, 2014 Rise Set
Actual Time 4:06 AM AKDT 1:14 AM AKDT
Civil Twilight Sun does not rise Sun does not rise
Nautical Twilight Sun does not rise Sun does not rise
Astronomical Twilight Sun does not rise Sun does not rise
Moon 3:15 PM AKDT (5/8) 5:00 AM AKDT (5/8)
Length of Visible Light 24h 00m
Length of Day
21h 07m
Waxing Gibbous, 66% of the Moon is Illuminated
May 8
Waxing Gibbous
May 14
Full
May 21
Last Quarter
May 28
New
Jun 5
First Quarter

Hourly Weather History & Observations

Time (AKDT) Temp. Windchill Dew Point Humidity Pressure Visibility Wind Dir Wind Speed Gust Speed Precip Events Conditions
12:53 AM 17.1 °F 8.7 °F 12.9 °F 84% 29.96 in 10.0 mi SSW 5.8 mph - N/A   Clear
1:53 AM 15.1 °F - 10.9 °F 84% 29.96 in 10.0 mi Calm Calm - N/A   Scattered Clouds
2:53 AM 14.0 °F 6.5 °F 10.0 °F 84% 29.96 in 10.0 mi SE 4.6 mph - N/A   Partly Cloudy
3:53 AM 10.9 °F 1.4 °F 7.0 °F 84% 29.98 in 10.0 mi SSE 5.8 mph - N/A   Clear
4:53 AM 10.9 °F 4.7 °F 8.1 °F 88% 29.98 in 10.0 mi SE 3.5 mph - N/A   Clear
5:53 AM 10.9 °F 1.4 °F 8.1 °F 88% 29.98 in 10.0 mi SE 5.8 mph - N/A   Clear
6:53 AM 12.0 °F 4.1 °F 9.0 °F 88% 29.99 in 10.0 mi SE 4.6 mph - N/A   Clear
7:42 AM 12.2 °F 6.1 °F 10.4 °F 92% 29.99 in 10.0 mi ESE 3.5 mph - N/A   Mostly Cloudy
7:53 AM 14.0 °F - 10.9 °F 88% 29.99 in 10.0 mi Calm Calm - N/A   Mostly Cloudy
8:04 AM 14.0 °F - 10.4 °F 86% 29.99 in 10.0 mi Calm Calm - N/A   Scattered Clouds
8:53 AM 15.1 °F 9.4 °F 12.0 °F 88% 30.00 in 10.0 mi East 3.5 mph - N/A   Clear
9:53 AM 16.0 °F 8.8 °F 12.0 °F 84% 30.00 in 10.0 mi SE 4.6 mph - N/A   Clear
10:53 AM 18.0 °F 12.7 °F 15.1 °F 88% 30.01 in 10.0 mi ESE 3.5 mph - N/A   Clear
11:53 AM 21.0 °F 13.4 °F 16.0 °F 81% 30.01 in 10.0 mi ESE 5.8 mph - N/A   Clear
12:53 PM 21.9 °F 13.4 °F 17.1 °F 82% 30.02 in 10.0 mi ESE 6.9 mph - N/A   Clear
1:53 PM 24.1 °F 13.7 °F 18.0 °F 77% 30.03 in 10.0 mi ESE 10.4 mph - N/A   Clear
2:53 PM 25.0 °F 15.5 °F 19.0 °F 78% 30.03 in 10.0 mi East 9.2 mph - N/A   Clear
3:43 PM 26.6 °F 16.8 °F 21.2 °F 80% 30.03 in 10.0 mi East 10.4 mph - N/A   Scattered Clouds
3:53 PM 27.0 °F 17.3 °F 21.0 °F 78% 30.03 in 10.0 mi East 10.4 mph - N/A   Mostly Cloudy
4:07 PM 26.6 °F 16.2 °F 19.4 °F 74% 30.03 in 10.0 mi East 11.5 mph - N/A   Mostly Cloudy
4:53 PM 27.0 °F 16.7 °F 19.9 °F 75% 30.04 in 10.0 mi East 11.5 mph - N/A   Overcast
5:53 PM 27.0 °F 16.1 °F 21.0 °F 78% 30.04 in 10.0 mi East 12.7 mph - N/A   Clear
6:53 PM 26.1 °F 15.0 °F 19.9 °F 78% 30.04 in 10.0 mi East 12.7 mph - N/A   Clear
7:10 PM 26.6 °F 16.2 °F 19.4 °F 74% 30.04 in 10.0 mi ENE 11.5 mph - N/A   Mostly Cloudy
7:41 PM 26.6 °F 15.7 °F 19.4 °F 74% 30.04 in 10.0 mi ENE 12.7 mph - N/A   Scattered Clouds
7:53 PM 25.0 °F 13.6 °F 19.9 °F 81% 30.05 in 10.0 mi ENE 12.7 mph - N/A   Partly Cloudy
8:53 PM 24.1 °F 12.0 °F 19.0 °F 81% 30.06 in 10.0 mi ENE 13.8 mph - N/A   Clear
9:42 PM 23.0 °F 11.7 °F 19.4 °F 86% 30.05 in 10.0 mi ENE 11.5 mph - N/A   Scattered Clouds
9:53 PM 23.0 °F 11.7 °F 18.0 °F 81% 30.06 in 10.0 mi ENE 11.5 mph - N/A   Clear
10:53 PM 21.0 °F 9.3 °F 17.1 °F 85% 30.07 in 10.0 mi ENE 11.5 mph - N/A   Scattered Clouds
11:53 PM 19.0 °F 6.8 °F 15.1 °F 85% 30.07 in 10.0 mi ENE 11.5 mph - N/A   Clear